[[{"header":{"parameterUnit":"m.s-1","parameterCategory":1,"la1":30.2991,"la2":30.254,"lo1":-89.0895,"lo2":-89.0444,"dy":0.0017,"dx":0.0017,"nx":28,"ny":28,"refTime":"2023-08-08T21:00:00:Z","depth":0,"parameterNumber":2,"parameterNumberName":"U-component_of_WINDS"},"data":[0,0,0,0,0,0,0,0,0,0,0,0,0,0,0,0,0,0,0,0,0,0,0,0,0,0,0,0,0,0,0,0,0,0,0,0,0,0,0,0,0,0,0,0,0,0,0,0,0,0,0,0,0,0,0,0,0,0,3.8682,3.8683,0,3.8718,3.8718,3.8719,3.8744,3.8744,3.8744,3.8745,3.878,3.8781,3.8782,0,0,0,0,0,0,0,0,0,0,0,0,0,3.8636,3.8637,3.8682,3.8683,3.8683,3.8718,3.8718,3.8719,3.8744,3.8744,3.8744,3.8745,3.878,3.8781,3.8782,0,0,0,0,0,0,0,0,0,0,0,0,0,3.8663,3.8637,3.8682,3.87,3.8702,3.8718,3.8718,3.8719,3.8744,3.8744,3.8745,3.8745,3.878,3.8781,3.8782,3.8782,0,0,3.8785,3.8786,0,0,0,0,0,0,0,0,3.8661,3.8664,3.8697,3.8699,3.8701,3.8727,3.8715,3.874,3.8744,3.8728,3.8745,3.8745,3.8762,3.8765,3.8771,3.8784,3.8786,3.8785,3.8786,3.8786,3.8787,0,0,0,0,0,0,0,3.8659,3.8663,3.8696,3.8697,3.87,3.8706,3.871,3.872,3.8743,3.8729,3.8731,3.8735,3.8763,3.8769,3.8772,3.8786,3.8785,3.8786,3.8787,3.8787,3.8804,3.8803,0,0,0,0,0,0,3.8655,3.8661,3.8695,3.8697,3.8681,3.8707,3.8711,3.8718,3.8743,3.8747,3.8735,3.8736,3.8767,3.877,3.8773,3.8776,3.8786,3.8787,3.8788,3.8804,3.8804,3.8803,0,0,0,0,0,0,3.8654,3.8657,3.8694,3.868,3.8685,3.8707,3.8715,3.8719,3.8725,3.8747,3.8751,3.8737,3.8768,3.8771,3.878,3.8778,3.8788,3.8789,3.8804,3.8804,3.8803,3.8782,0,0,0,0,0,0,3.8652,3.8657,3.8657,3.868,3.8686,3.87,3.8715,3.8719,3.8727,3.8729,3.875,3.8754,3.8768,3.8778,3.8781,3.878,3.879,3.8804,3.8804,3.8804,3.8783,3.8781,3.8779,0,0,0,0,0,3.865,3.8649,3.8657,3.8661,3.8686,3.87,3.8703,3.872,3.8727,3.8727,3.8742,3.8753,3.8778,3.8779,3.8783,3.8781,3.8805,3.8804,3.8804,3.8784,3.8782,3.8779,0,0,0,0,0,0,3.8625,3.8652,3.8661,3.8667,3.8681,3.8704,3.8705,3.8717,3.8729,3.873,3.8751,3.8755,3.8762,3.8773,3.8774,3.8784,3.8793,3.8793,3.8777,3.8775,3.8773,3.877,3.8791,0,0,0,0,0,3.862,3.8629,3.8653,3.8656,3.8662,3.8683,3.8689,3.8701,3.8716,3.8722,3.8737,3.8751,3.8762,3.8769,3.878,3.8785,3.8791,3.8786,3.8784,3.8782,3.8782,3.8787,3.8785,3.8802,3.8802,3.8802,0,0,3.861,3.8626,3.863,3.8651,3.8663,3.8672,3.8687,3.8696,3.8703,3.8723,3.8733,3.8745,3.8762,3.8769,3.8773,3.8778,3.8779,3.8782,3.878,3.8781,3.8786,3.8785,3.8783,3.8801,3.8801,3.8801,0,0,3.8596,3.8609,3.8614,3.8626,3.8645,3.8659,3.866,3.8682,3.869,3.8701,3.8717,3.8725,3.8744,3.8756,3.8764,3.8757,3.8768,3.876,3.875,3.8754,3.8753,3.8752,3.875,3.8749,3.876,3.876,3.876,0,3.8581,3.8595,3.8614,3.8622,3.8631,3.8652,3.8657,3.8668,3.8689,3.8695,3.87,3.8725,3.8738,3.8749,3.8747,3.8753,3.8755,3.8758,3.8752,3.8751,3.875,3.8749,3.8748,3.8759,3.8759,3.8759,3.8759,0,3.8576,3.8586,3.8587,3.8608,3.8618,3.8624,3.8645,3.8652,3.8663,3.8677,3.8688,3.8704,3.872,3.8724,3.8735,3.8737,3.8739,3.8748,3.8757,3.8747,3.8746,3.8746,3.8757,3.8758,3.8758,3.8758,0,0,3.8545,3.8579,3.8579,3.8589,3.8612,3.862,3.8628,3.8644,3.865,3.8665,3.8672,3.8688,3.8697,3.8707,3.872,3.8723,3.8718,3.8732,3.8733,3.8729,3.8722,3.8715,3.8714,3.8726,3.8726,3.8726,3.8721,0,3.8535,3.8551,3.8569,3.8579,3.8588,3.8609,3.8616,3.8631,3.8644,3.8655,3.867,3.8681,3.8691,3.8697,3.8702,3.8718,3.8717,3.8718,3.8733,3.8734,3.8728,3.8714,3.8706,3.87,3.8721,3.872,3.872,0,3.8525,3.854,3.855,3.8574,3.8579,3.8585,3.8602,3.8612,3.863,3.8639,3.8651,3.8665,3.8675,3.8684,3.8698,3.8699,3.8707,3.8715,3.8716,3.8717,3.8726,3.8715,3.8699,3.8698,3.872,3.872,3.872,0,3.8502,3.8525,3.8534,3.8542,3.857,3.8574,3.8586,3.8604,3.8613,3.8628,3.8635,3.865,3.8659,3.8671,3.8689,3.8694,3.8702,3.8712,3.8711,3.871,3.8711,3.8711,3.8696,3.8716,3.8716,3.8716,3.8716,0,3.8489,3.8495,3.8525,3.853,3.8538,3.8559,3.8566,3.858,3.8596,3.8605,3.8624,3.8632,3.8656,3.8667,3.8682,3.8692,3.8696,3.8704,3.8708,3.8702,3.8701,3.8707,3.8708,3.8716,3.8716,3.8716,3.8716,0,3.8464,3.8485,3.8497,3.8523,3.8529,3.8534,3.8556,3.8563,3.8578,3.8589,3.8593,3.8617,3.8631,3.8651,3.8671,3.8681,3.869,3.8696,3.8684,3.8686,3.8684,3.8684,3.8672,3.8672,3.8692,3.8691,3.8691,0,3.8454,3.846,3.8487,3.8495,3.8506,3.8518,3.8528,3.855,3.8559,3.8581,3.8585,3.8601,3.8615,3.8637,3.8656,3.8672,3.8679,3.8674,3.8681,3.8676,3.8679,3.8679,3.868,3.8672,3.8671,3.8671,3.8671,0,3.8435,3.8445,3.8458,3.8476,3.8487,3.8502,3.8517,3.8523,3.8548,3.8558,3.8573,3.8584,3.8606,3.8621,3.864,3.8653,3.8666,3.8669,3.8669,3.8664,3.8657,3.8661,3.8679,3.8669,3.8669,3.8669,3.8669,3.8669,3.8417,3.8423,3.8444,3.8459,3.8473,3.8488,3.8496,3.8512,3.8526,3.8545,3.8558,3.8573,3.8592,3.8619,3.8631,3.8643,3.8649,3.8649,3.865,3.8649,3.8648,3.8655,3.8647,3.8647,3.8647,3.8647,3.8647,0,3.8399,3.8414,3.8427,3.8449,3.8461,3.8474,3.8492,3.8501,3.8514,3.8531,3.8545,3.8564,3.858,3.8601,3.8618,3.8624,3.8631,3.8628,3.8628,3.8631,3.8642,3.864,3.8622,3.8622,3.8622,3.8622,3.8622,3.8622,3.8391,3.8402,3.8415,3.8434,3.8449,3.8464,3.8473,3.8487,3.8501,3.8521,3.8535,3.8549,3.8568,3.8587,3.8603,3.8609,3.8615,3.861,3.8618,3.8627,3.863,3.8632,3.863,3.8611,3.8611,3.8606,3.8605,3.8605]},{"header":{"parameterUnit":"m.s-1","parameterCategory":1,"la1":30.2991,"la2":30.254,"lo1":-89.0895,"lo2":-89.0444,"dy":0.0017,"dx":0.0017,"nx":28,"ny":28,"refTime":"2023-08-08T21:00:00:Z","depth":0,"parameterNumber":3,"parameterNumberName":"V-component_of_WINDS"},"data":[0,0,0,0,0,0,0,0,0,0,0,0,0,0,0,0,0,0,0,0,0,0,0,0,0,0,0,0,0,0,0,0,0,0,0,0,0,0,0,0,0,0,0,0,0,0,0,0,0,0,0,0,0,0,0,0,0,0,4.0313,4.0313,0,4.0341,4.0342,4.0342,4.0347,4.0347,4.0347,4.0347,4.0372,4.0373,4.0374,0,0,0,0,0,0,0,0,0,0,0,0,0,4.0261,4.0262,4.0313,4.0313,4.0314,4.0341,4.0342,4.0342,4.0347,4.0347,4.0347,4.0347,4.0372,4.0373,4.0374,0,0,0,0,0,0,0,0,0,0,0,0,0,4.0286,4.0262,4.0313,4.032,4.0321,4.0341,4.0342,4.0342,4.0347,4.0347,4.0347,4.0347,4.0372,4.0373,4.0374,4.0389,0,0,4.0379,4.0379,0,0,0,0,0,0,0,0,4.0284,4.0288,4.0318,4.0319,4.032,4.0341,4.0333,4.0358,4.0348,4.0337,4.0347,4.0346,4.0362,4.0364,4.037,4.039,4.0391,4.0379,4.0379,4.038,4.038,0,0,0,0,0,0,0,4.0283,4.0286,4.0324,4.0319,4.032,4.0321,4.0324,4.0337,4.0351,4.0338,4.0339,4.0342,4.0362,4.0369,4.0371,4.0392,4.0379,4.038,4.0381,4.0381,4.0425,4.0426,0,0,0,0,0,0,4.028,4.0285,4.0323,4.0325,4.0301,4.0322,4.0325,4.0334,4.0351,4.0353,4.0342,4.0342,4.0367,4.0369,4.0371,4.039,4.038,4.0381,4.0382,4.0425,4.0425,4.0426,0,0,0,0,0,0,4.0279,4.0283,4.0322,4.0305,4.031,4.0323,4.0333,4.0335,4.0341,4.0354,4.0356,4.0346,4.0366,4.037,4.0385,4.0391,4.0382,4.0383,4.0425,4.0425,4.0426,4.0426,0,0,0,0,0,0,4.0277,4.0283,4.0289,4.0305,4.0311,4.0336,4.0334,4.0336,4.0344,4.0344,4.0358,4.036,4.0366,4.0383,4.0386,4.0392,4.0384,4.0424,4.0425,4.0426,4.0426,4.0427,4.0427,0,0,0,0,0,4.0275,4.0287,4.029,4.0294,4.0319,4.0336,4.0339,4.0347,4.0345,4.0351,4.0359,4.036,4.039,4.0384,4.0388,4.0395,4.0424,4.0425,4.0425,4.0425,4.0426,4.0427,0,0,0,0,0,0,4.027,4.029,4.0292,4.031,4.0322,4.0337,4.0345,4.0348,4.0359,4.0359,4.0367,4.037,4.0385,4.0391,4.0385,4.041,4.0406,4.0408,4.0405,4.0406,4.0407,4.0405,4.0385,0,0,0,0,0,4.0272,4.0285,4.03,4.0314,4.032,4.0332,4.0339,4.0344,4.0356,4.0361,4.037,4.038,4.0392,4.04,4.0411,4.0427,4.043,4.0433,4.0434,4.0435,4.0436,4.0445,4.0446,4.0429,4.0429,4.0429,0,0,4.0274,4.0286,4.0293,4.0314,4.0323,4.0336,4.0336,4.0349,4.0358,4.0362,4.0377,4.0385,4.0397,4.0413,4.042,4.0418,4.0441,4.0436,4.0436,4.0437,4.0446,4.0447,4.0449,4.0429,4.0429,4.0429,0,0,4.0284,4.0295,4.0308,4.0318,4.0333,4.034,4.0343,4.0359,4.0364,4.038,4.0383,4.0394,4.0414,4.0423,4.043,4.0444,4.0445,4.0447,4.0452,4.046,4.0462,4.0463,4.0468,4.0469,4.0449,4.0449,4.0449,0,4.0284,4.0304,4.0314,4.0327,4.0336,4.0342,4.0354,4.0363,4.0381,4.0386,4.0385,4.041,4.0419,4.0437,4.044,4.0446,4.0449,4.0445,4.0461,4.0462,4.0464,4.0468,4.047,4.0449,4.0449,4.0449,4.0449,0,4.0304,4.0318,4.0326,4.0344,4.0354,4.0367,4.0378,4.0386,4.039,4.0398,4.0413,4.0424,4.0438,4.0443,4.0446,4.0461,4.046,4.046,4.0456,4.0465,4.047,4.0472,4.0449,4.0449,4.0449,4.0449,0,0,4.0311,4.0335,4.0338,4.0346,4.0364,4.0374,4.0387,4.0402,4.0409,4.0421,4.0431,4.0448,4.0449,4.0457,4.0461,4.0469,4.0479,4.0468,4.0468,4.0469,4.0496,4.0495,4.0497,4.0481,4.0481,4.0481,4.0494,0,4.0323,4.0348,4.0357,4.0376,4.0389,4.0395,4.0407,4.0418,4.0425,4.0436,4.0444,4.0456,4.0456,4.0461,4.0468,4.0476,4.0485,4.0476,4.049,4.049,4.0486,4.05,4.0499,4.0511,4.0496,4.0497,4.0497,0,4.034,4.0354,4.0375,4.0391,4.0397,4.0407,4.0422,4.0432,4.0445,4.045,4.0459,4.0464,4.0477,4.0474,4.0491,4.0485,4.0491,4.0496,4.0497,4.0498,4.0494,4.0501,4.0515,4.0517,4.05,4.0499,4.0499,0,4.0343,4.0366,4.0382,4.0389,4.0409,4.0416,4.0424,4.0437,4.0445,4.0457,4.0463,4.0476,4.0483,4.0492,4.05,4.0497,4.0517,4.0514,4.0521,4.052,4.0524,4.0524,4.0539,4.0529,4.0529,4.0529,4.0529,0,4.0355,4.0368,4.0384,4.0394,4.0408,4.0418,4.0432,4.044,4.0451,4.0462,4.0468,4.0478,4.0488,4.0499,4.0505,4.0518,4.0521,4.0525,4.0526,4.0524,4.0524,4.0528,4.0527,4.0529,4.0529,4.0529,4.0529,0,4.036,4.0371,4.0389,4.0407,4.0411,4.0421,4.0435,4.0445,4.0453,4.0466,4.047,4.0482,4.0496,4.0505,4.0521,4.0525,4.054,4.0541,4.0536,4.0536,4.0542,4.0541,4.0561,4.0564,4.0552,4.0552,4.0552,0,4.0367,4.0377,4.0396,4.0404,4.0413,4.0426,4.0435,4.0445,4.0454,4.047,4.0477,4.0491,4.0503,4.0523,4.0533,4.0546,4.0547,4.0553,4.0549,4.0547,4.0547,4.0546,4.0547,4.0553,4.0554,4.0554,4.0554,0,4.0378,4.0383,4.0396,4.0412,4.0423,4.0435,4.0448,4.0454,4.0466,4.0476,4.049,4.0499,4.0517,4.053,4.0544,4.0551,4.0554,4.0555,4.0557,4.0555,4.0551,4.0553,4.0537,4.0554,4.0554,4.0554,4.0554,4.0554,4.0384,4.0393,4.0408,4.0423,4.0434,4.0445,4.0455,4.0465,4.0477,4.0493,4.0498,4.0513,4.0525,4.0544,4.0552,4.0563,4.0562,4.0565,4.0566,4.0567,4.0567,4.055,4.0566,4.0566,4.0566,4.0566,4.0566,0,4.0394,4.0405,4.0418,4.0436,4.0448,4.0451,4.0465,4.0474,4.0488,4.05,4.0511,4.0528,4.0541,4.0552,4.0565,4.0572,4.0574,4.0575,4.0574,4.0576,4.0567,4.0563,4.0574,4.0574,4.0574,4.0574,4.0574,4.0574,4.0402,4.0418,4.0425,4.0447,4.0457,4.0472,4.048,4.049,4.05,4.0518,4.053,4.0538,4.0549,4.0564,4.0576,4.0578,4.0583,4.0584,4.0587,4.0578,4.0577,4.0576,4.0573,4.0585,4.0585,4.0596,4.0596,4.0596]}]]